Find Starlink 11630

NORAD ID: 63111 Int'l Des: 2025-039 Owner: SPXS Country: US Constellation: starlink operational
LEOCIRCULAR

实时位置

正在加载3D地球...

关于 Starlink 11630

正在加载描述...

即将过境

Passes for default location (London). Set your location on the main map for personalized predictions.

高度历史

Loading altitude history...

两行轨道根数

1 63111U 25039H 26124.65191950 .00220376 00000-0 16734-2 0 9995
2 63111 42.9996 259.8088 0000949 157.1910 202.9000 15.70874103 68417
Epoch: May 4, 2026 • Age: 15 hours

当前状态

高度 355.3 km
速度 7.70 km/s
星下点 7.11°N, 63.79°W
发射日期 Feb 27, 2025
运行时间 1.1 years
类型 internet

技术详情

分类 Payload
质量 960.00 kg
干质量 910.00 kg
总质量 960.00 kg
长度 0.30 m
直径 4.10 m
跨度 29.00 m
形状 Box + pan
制造商 SPXS
平台类型 Starlink V2MD
阶段状态 In Orbit
所有者/国家 SPXS/US

Most Searched